Location: Lugrin
(46.4033°N, 6.6674°E)
Time: 17:21:36
(UTC+00:00)

USA 234 - Pass Details

Date: 18 September 2020
Orbit: 1102 x 1106 km, 123.0° (Epoch: 16 October)

Event Time Altitude Azimuth Distance (km) Brightness Sun altitude
Rises 22:00:15 0° 58° (ENE) 3,925 6.2 -38.5°
Reaches altitude 10° 22:02:51 10° 51° (NE) 2,966 5.6 -38.7°
Enters shadow 22:03:22 12° 50° (NE) 2,789 5.5 -38.8°
Exits shadow 22:06:55 34° 23° (NNE) 1,744 4.5 -39.0°
Maximum altitude 22:08:55 42° 344° (NNW) 1,524 4.2 -39.2°
Drops below altitude 10° 22:14:59 10° 276° (W) 2,964 5.8 -39.6°
Sets 22:17:35 0° 270° (W) 3,921 6.4 -39.8°
